Dewpoint
13 15 11 11 12 11 14 13 13 16 16 15 11 11 11 11 11 11 11 9 8 11 12 11 10 11 13 14 15 15 14 14 14 13 13 12 12 12 13 12 13 14 13
10 11 9 8 8 11 16 15 15 15 14 14 13 12 12 13 13 13 13 12 11 9 9 8 6 8 9 12 14 15 14 14 15 14 13 13 12 12 11 12 13 13 12
9 8 7 8 11 9 15 15 15 14 12 12 12 12 11 9 9 9 7 7 6 6 6 7 11 12 10 12 13 13 14 15 15 15 15 13 11 12 12 11 12 13 13
9 8 12 12 11 12 15 14 14 14 13 11 4 3 5 5 6 7 7 6 5 3 4 6 8 11 12 11 11 11 11 11 11 14 15 15 14 12 11 12 12 10 13
11 13 12 14 14 15 14 12 10 6 5 6 6 6 6 6 6 6 6 6 5 3 1 2 6 9 9 9 9 8 8 8 9 9 14 15 15 14 12 11 12 12 11
13 13 13 9 11 10 9 9 9 9 9 9 9 9 9 9 10 10 9 8 7 6 3 2 4 9 10 10 9 8 7 7 8 9 9 15 14 15 14 12 12 13 13
10 11 11 11 10 9 9 9 9 10 10 10 11 11 12 11 11 11 9 9 8 7 5 5 6 7 9 10 10 10 9 7 7 9 11 14 15 15 14 13 13 14 13
10 11 11 11 11 10 11 11 12 12 12 12 13 13 12 11 11 10 9 9 8 6 6 7 8 8 8 10 10 10 10 8 7 7 9 9 14 16 16 12 14 15 14
11 11 11 10 11 11 11 11 11 11 11 11 11 11 10 10 10 9 8 8 7 6 7 8 9 8 7 8 9 10 10 10 8 7 5 10 10 13 15 15 15 15 15
10 10 9 9 8 8 8 7 7 7 7 7 7 6 5 4 2 2 4 6 7 8 8 7 8 10 8 8 11 12 12 10 9 8 8 7 11 10 11 14 15 15 15
5 2 -1 -3 -2 -1 0 1 1 1 2 1 1 1 2 3 4 4 4 7 7 8 8 7 8 10 11 11 10 10 10 9 10 10 9 7 8 11 11 10 13 14 15
1 1 0 -2 -4 -6 -6 -7 -7 -6 -6 -7 -7 -8 -8 -6 -5 -1 5 6 7 8 8 8 9 9 10 11 11 11 10 10 10 10 11 9 9 11 12 11 12 14 14
-2 -4 -5 -5 -5 -5 -4 -3 -4 -4 -2 -2 -2 -0 0 0 -0 -1 1 1 4 6 7 8 9 10 10 11 10 9 9 9 9 9 11 11 9 10 12 12 12 12 13
-4 -5 -5 -7 -6 -6 -6 -5 -3 -1 -0 -0 0 0 0 1 1 1 2 3 2 2 4 6 7 8 10 10 10 10 9 8 8 8 8 9 10 10 11 10 11 12 12
-3 -3 -4 -3 -4 -3 -4 -3 -2 -2 0 1 0 1 1 2 2 3 3 3 2 2 3 4 5 6 8 8 9 10 9 8 8 7 6 7 7 9 10 10 10 10 10
-3 -4 -3 -2 -2 -2 -3 -4 -5 -2 -0 1 1 1 1 1 1 2 2 2 1 2 4 4 3 3 5 7 8 7 8 8 8 7 7 6 6 6 8 9 10 10 10
-4 -3 -2 -2 -3 -2 -2 -2 -0 -0 1 1 2 1 1 1 0 0 1 2 2 2 2 3 3 2 3 4 6 6 7 7 7 7 7 6 5 6 6 8 8 10 11
-3 -2 -0 -0 -1 -2 -0 0 1 1 2 2 2 2 1 1 0 0 0 0 1 2 2 1 1 1 1 2 4 5 6 7 7 7 7 6 7 8 8 8 8 7 10
-1 -0 1 -0 -1 -0 1 1 1 1 2 2 2 2 2 1 0 0 -0 -0 1 1 1 1 1 1 2 2 2 5 5 6 6 7 7 8 8 9 9 10 11 10 9
-0 0 -0 -1 -1 -0 1 1 1 1 1 1 2 2 1 1 0 0 0 -0 -0 0 0 1 1 1 3 5 5 6 5 6 7 7 8 8 9 10 10 10 10 10 11
-0 -1 -1 -1 0 0 1 1 1 1 1 2 2 2 1 1 0 0 0 -0 -0 -0 0 0 1 1 2 2 3 5 6 7 8 8 7 8 8 9 10 10 10 10 10
-1 -1 -1 -0 0 -0 -0 1 1 1 2 2 1 1 1 1 0 0 0 0 0 0 0 0 1 1 2 3 4 6 7 7 8 8 8 9 9 9 10 10 10 10 10
-2 -1 -0 -0 -1 -1 1 1 2 2 2 1 1 1 1 1 0 0 1 1 1 1 1 1 2 2 3 4 4 5 6 7 8 8 9 9 9 10 9 10 10 10 10
-1 -1 -1 -1 -1 1 1 1 2 2 1 1 1 0 0 -0 -0 0 1 1 1 1 1 2 3 3 4 5 5 6 6 7 7 8 9 9 9 10 10 10 10 10 10
-1 -1 -3 -1 1 1 1 1 2 2 2 1 1 1 1 1 1 1 1 1 1 2 2 3 3 4 5 5 6 6 7 7 7 8 8 9 9 9 10 10 11 11 10
-2 -4 -2 -0 1 1 1 2 2 2 2 2 2 2 2 2 3 3 2 2 2 2 3 4 4 5 6 6 7 7 7 7 7 7 8 9 9 9 9 9 11 11 11
Wind_Speed
10 22 16 13 22 35 31 23 22 15 11 9 7 6 7 7 9 10 12 13 14 15 16 18 18 17 17 17 16 21 21 22 27 28 24 18 15 13 10 11 13 20 19
6 11 21 32 41 42 40 24 19 13 11 10 10 10 10 13 15 16 16 17 17 18 19 21 21 19 17 16 15 16 20 23 26 30 26 25 19 16 16 13 12 14 20
5 7 11 12 21 41 25 15 14 13 9 9 11 14 16 17 18 20 20 19 19 19 20 19 17 18 19 16 16 15 15 20 23 29 32 29 26 21 19 19 19 17 17
6 9 9 10 18 30 22 16 12 9 9 11 14 16 16 17 17 18 18 20 23 23 24 24 24 23 23 24 24 22 20 21 22 25 29 31 31 28 27 24 23 22 19
4 3 5 10 13 12 8 9 9 10 10 13 15 18 19 20 20 22 23 25 27 28 28 27 27 26 25 25 26 25 24 25 26 26 27 29 33 31 31 26 25 22 23
9 7 9 11 11 12 14 11 12 14 16 17 19 20 21 22 23 24 26 29 31 33 33 31 28 29 29 26 26 28 25 25 27 26 28 29 30 33 31 28 25 24 26
12 13 12 9 10 13 15 17 19 20 21 22 23 24 25 26 28 29 31 34 34 36 34 32 30 30 29 29 28 29 29 27 27 27 28 28 30 28 29 28 25 25 27
11 12 12 14 14 15 17 19 20 22 23 25 26 27 29 30 32 34 36 37 38 36 32 29 31 30 31 30 30 29 32 30 27 27 29 30 26 23 27 27 27 25 26
12 9 10 13 16 18 20 22 24 26 28 29 31 33 35 37 39 39 38 37 38 36 32 28 28 29 31 30 30 33 32 33 30 29 29 28 28 27 24 25 26 23 26
9 11 13 16 19 22 24 26 28 30 33 35 38 39 40 41 40 37 34 34 34 34 34 33 30 28 26 27 29 30 32 35 30 28 28 29 29 29 27 26 26 28 27
12 14 15 16 16 18 19 20 23 25 28 29 32 31 31 32 34 31 30 31 31 31 32 31 27 24 23 23 28 33 34 32 28 27 27 29 28 29 28 28 27 29 28
5 4 3 5 8 11 14 16 19 22 26 27 30 31 30 31 30 29 29 28 28 28 28 26 25 28 23 24 26 26 26 26 26 26 26 26 28 27 26 26 26 25 25
2 3 6 8 11 15 18 21 23 24 26 28 28 31 33 33 31 28 26 25 25 28 28 27 26 23 20 21 21 21 19 19 21 22 25 26 26 27 23 24 25 25 25
1 5 8 12 14 19 24 28 31 30 30 29 31 33 35 35 34 34 32 32 30 30 32 33 31 30 30 26 29 23 22 22 25 29 28 25 25 27 28 26 26 26 28
5 8 11 13 16 24 29 30 35 35 30 28 30 31 32 34 32 29 32 35 34 33 33 34 33 34 34 34 36 30 29 27 28 31 32 33 31 28 29 30 30 31 32
8 12 16 20 24 29 35 39 38 42 34 26 26 28 29 29 33 34 36 38 38 36 34 34 36 36 38 34 33 35 33 32 31 30 31 33 34 32 31 29 30 32 33
12 15 20 24 29 31 36 39 45 44 37 35 33 30 29 30 28 27 30 31 33 32 32 31 34 34 37 38 37 34 34 33 32 30 30 32 32 31 32 32 32 29 28
16 19 23 26 29 30 33 36 41 38 38 38 36 34 32 32 32 27 26 33 34 32 32 32 34 38 40 39 37 37 34 33 33 32 31 31 29 28 28 29 32 32 29
17 20 22 24 27 30 32 36 41 40 36 40 41 38 36 35 34 32 25 25 27 30 32 30 30 33 34 37 40 35 34 34 37 35 31 28 27 26 27 28 28 29 30
18 21 22 25 30 33 35 38 43 42 39 41 41 39 37 37 36 34 29 25 23 26 28 31 28 29 23 22 25 27 31 30 28 27 27 26 25 24 25 27 28 28 29
21 21 23 28 32 35 37 39 45 43 39 40 40 38 36 35 36 32 29 25 22 24 29 27 23 27 27 28 30 30 28 27 27 26 26 25 24 23 23 25 27 26 27
20 23 27 32 35 37 37 40 43 38 40 40 41 40 37 36 35 33 29 26 24 23 23 25 25 22 22 23 23 22 22 19 22 24 23 24 24 23 22 23 24 24 25
22 26 30 33 34 34 38 39 36 38 40 39 39 39 39 38 36 33 30 26 24 22 22 23 23 24 24 24 24 25 23 21 21 12 16 22 22 22 23 23 25 25 25
23 26 31 32 31 32 39 36 38 38 37 38 38 38 36 34 34 32 30 27 24 22 21 21 23 24 24 26 29 28 26 27 27 25 20 15 14 23 25 24 24 26 26
24 29 30 30 29 36 34 35 35 35 36 34 34 33 31 31 30 29 28 27 26 25 23 22 23 23 25 26 28 28 28 27 27 29 27 27 23 22 22 24 24 24 25
27 28 28 27 33 30 31 32 31 32 33 34 35 35 34 33 31 29 28 26 24 25 24 24 24 24 24 26 26 26 26 27 27 25 27 25 23 25 27 27 27 25 24
Wind_Direction
300 243 232 274 266 312 272 269 268 261 259 225 208 231 264 284 293 297 299 298 293 289 289 292 290 290 287 286 280 265 262 257 262 271 269 272 261 260 263 250 245 249 254
306 255 267 263 263 289 260 261 257 247 227 229 246 267 279 286 286 284 286 289 288 288 287 288 291 289 282 279 283 273 261 261 264 268 273 269 266 253 251 247 236 253 251
54 51 9 344 225 220 259 249 232 224 228 253 275 282 286 288 289 287 289 291 291 290 291 288 280 281 278 275 275 275 274 268 264 262 268 270 270 259 250 248 246 246 249
89 61 92 93 163 205 246 223 218 230 251 275 285 293 299 307 305 297 296 299 303 301 294 285 277 271 271 272 270 269 270 274 273 267 266 267 267 263 263 256 248 249 251
168 182 116 131 182 203 190 226 233 251 274 288 289 296 297 299 300 296 298 303 303 303 299 285 275 270 268 270 271 268 265 265 268 271 269 270 267 264 260 263 261 256 250
213 190 149 127 171 203 223 242 264 277 282 286 286 285 283 282 284 286 292 298 302 301 298 288 275 267 264 265 266 268 264 263 264 267 269 267 273 272 268 267 271 263 260
136 146 167 195 222 238 253 263 269 268 262 258 261 265 268 273 276 280 288 295 298 299 293 281 277 269 265 262 262 265 263 261 261 266 266 270 271 275 266 274 267 267 261
188 196 209 220 229 239 248 255 260 262 263 265 263 265 269 273 277 282 287 292 294 294 286 282 278 273 267 262 262 261 265 259 257 260 264 263 265 274 265 263 269 264 258
184 206 234 256 265 270 274 275 275 273 273 273 275 278 278 280 283 286 289 289 287 283 283 282 281 278 267 264 262 259 259 260 259 262 260 260 260 258 264 263 258 256 259
251 265 274 278 281 282 282 282 282 285 285 284 284 282 284 287 286 289 288 283 282 282 281 280 279 281 274 257 256 258 255 261 265 267 260 257 256 258 255 256 257 256 254
280 282 287 291 295 295 296 298 301 298 295 294 292 293 292 293 291 289 281 276 281 284 281 282 280 282 271 259 253 254 256 264 264 263 263 258 254 254 256 252 253 251 251
280 284 313 316 318 321 320 316 314 309 303 299 299 298 294 285 283 283 278 271 274 278 279 278 273 271 270 257 251 252 255 255 259 260 261 262 259 257 257 254 252 253 254
93 60 38 13 356 349 342 335 329 321 311 308 305 299 299 299 295 289 289 291 276 277 273 270 270 265 258 230 229 228 238 251 263 269 266 264 265 261 260 256 254 255 255
43 359 349 342 350 357 354 354 351 341 328 317 309 305 302 301 301 301 302 301 295 283 278 272 267 264 254 254 254 242 242 251 262 270 274 273 267 261 253 257 260 259 260
324 341 341 342 348 351 349 350 350 346 332 316 309 303 301 300 302 298 288 287 288 289 288 280 272 266 264 259 256 257 255 260 260 263 269 271 269 266 260 254 256 260 261
330 331 338 342 340 340 342 342 342 341 336 325 321 317 308 297 293 282 278 277 278 278 274 272 273 268 264 267 263 260 257 258 264 267 272 273 270 265 260 257 255 255 260
331 337 339 342 341 338 338 339 337 340 342 335 328 323 319 318 315 289 268 271 268 273 268 269 266 269 270 264 266 267 265 267 269 268 270 271 270 264 258 256 256 256 255
332 334 333 335 336 332 332 333 335 332 323 326 326 327 328 326 320 308 281 280 273 268 269 273 276 270 270 271 267 263 266 269 271 272 272 268 266 259 258 256 255 253 251
328 331 329 328 326 327 326 326 333 331 318 321 326 330 332 327 322 317 309 282 276 274 275 279 280 272 270 263 261 262 261 265 268 271 268 265 260 255 253 253 249 251 253
325 326 326 329 329 328 325 326 331 328 322 324 324 326 331 328 323 318 313 304 283 280 275 277 283 272 272 254 253 258 262 262 263 257 259 261 262 253 249 251 250 249 247
321 326 331 330 328 326 324 327 330 329 322 324 325 327 328 324 320 318 314 306 291 279 275 280 274 265 263 262 255 253 257 260 262 261 262 264 258 252 256 251 249 249 249
324 328 330 327 325 324 326 324 328 326 325 324 326 327 327 325 324 323 316 307 295 286 278 273 272 264 259 263 259 270 262 261 261 255 260 264 260 256 255 251 251 250 250
330 329 325 323 322 324 328 330 334 331 329 328 327 326 325 324 323 321 317 310 301 288 278 273 268 261 257 252 253 254 261 261 250 271 263 255 260 256 254 250 248 248 248
330 324 321 322 322 327 336 340 339 336 334 331 329 327 325 322 321 321 318 314 304 293 281 272 264 261 258 253 254 258 257 258 259 259 257 253 254 257 252 251 250 244 243
327 326 328 328 327 333 340 342 341 341 342 344 343 342 340 337 332 329 323 315 306 297 288 279 268 259 255 254 254 255 257 260 257 260 255 259 262 254 249 256 253 243 240
332 335 336 336 338 347 349 348 349 352 356 358 358 358 356 354 352 347 342 334 324 309 295 284 277 269 262 259 257 256 257 257 259 257 250 259 258 258 248 246 249 245 241
Height
1514 1516 1517 1522 1525 1530 1540 1539 1539 1537 1540 1541 1539 1540 1540 1540 1540 1540 1540 1539 1536 1535 1535 1533 1531 1530 1528 1527 1526 1526 1525 1524 1523 1523 1525 1527 1527 1528 1528 1527 1529 1531 1533
1508 1507 1507 1512 1518 1523 1535 1530 1535 1535 1536 1538 1540 1539 1536 1537 1537 1537 1536 1536 1533 1531 1530 1528 1526 1525 1524 1522 1520 1520 1519 1519 1519 1518 1518 1520 1522 1523 1524 1524 1524 1525 1526
1502 1500 1500 1505 1507 1522 1519 1531 1532 1534 1532 1536 1537 1537 1534 1532 1533 1534 1531 1530 1527 1525 1524 1523 1521 1520 1519 1518 1516 1514 1513 1512 1513 1512 1512 1514 1515 1517 1518 1518 1519 1519 1520
1503 1502 1504 1503 1512 1520 1526 1530 1528 1530 1531 1531 1533 1534 1532 1529 1529 1531 1527 1525 1523 1520 1518 1516 1516 1514 1513 1513 1511 1509 1506 1505 1506 1505 1505 1507 1508 1510 1510 1510 1512 1514 1515
1506 1508 1508 1508 1518 1523 1526 1531 1530 1530 1529 1529 1530 1529 1528 1526 1526 1527 1523 1520 1517 1513 1511 1509 1507 1507 1506 1505 1507 1503 1500 1498 1498 1498 1497 1498 1499 1501 1502 1504 1505 1507 1508
1510 1508 1509 1512 1521 1526 1530 1528 1525 1525 1525 1525 1524 1524 1524 1522 1520 1519 1516 1512 1509 1505 1501 1501 1498 1498 1497 1496 1497 1500 1495 1490 1490 1490 1489 1490 1491 1492 1494 1497 1499 1499 1500
1512 1513 1513 1514 1517 1519 1519 1519 1521 1520 1520 1520 1520 1518 1515 1512 1511 1510 1508 1504 1500 1497 1493 1492 1489 1489 1488 1486 1486 1492 1490 1484 1482 1482 1481 1482 1483 1485 1487 1488 1489 1492 1492
1516 1516 1516 1518 1518 1518 1518 1518 1517 1515 1514 1513 1511 1510 1506 1503 1503 1501 1497 1492 1491 1488 1485 1482 1482 1478 1481 1478 1477 1476 1485 1479 1476 1475 1473 1474 1476 1478 1479 1480 1482 1484 1484
1517 1517 1516 1516 1515 1514 1513 1512 1509 1508 1506 1504 1503 1499 1495 1494 1495 1491 1487 1483 1481 1477 1477 1472 1471 1470 1471 1471 1468 1469 1470 1472 1469 1467 1466 1466 1468 1471 1471 1472 1473 1475 1475
1513 1513 1512 1510 1508 1507 1506 1505 1502 1499 1497 1494 1490 1490 1487 1482 1484 1479 1476 1476 1470 1467 1465 1463 1464 1461 1459 1458 1460 1463 1459 1464 1462 1460 1458 1458 1460 1462 1464 1464 1466 1468 1470
1510 1509 1507 1504 1504 1505 1502 1498 1494 1491 1489 1487 1485 1478 1476 1472 1473 1470 1471 1465 1462 1460 1456 1453 1453 1451 1451 1449 1450 1453 1452 1458 1454 1451 1449 1450 1452 1455 1456 1457 1458 1460 1462
1509 1507 1503 1503 1503 1504 1501 1496 1492 1488 1486 1480 1474 1469 1466 1469 1466 1465 1460 1459 1456 1450 1446 1446 1442 1442 1441 1441 1441 1445 1446 1448 1445 1443 1442 1442 1444 1447 1449 1449 1451 1453 1454
1503 1502 1499 1503 1504 1500 1499 1494 1487 1481 1478 1472 1464 1467 1462 1458 1455 1454 1452 1448 1444 1439 1437 1435 1433 1433 1433 1432 1434 1436 1438 1438 1437 1435 1434 1435 1437 1439 1440 1441 1443 1445 1446
1501 1497 1497 1501 1497 1492 1489 1485 1481 1476 1470 1465 1459 1454 1451 1447 1442 1440 1436 1433 1431 1430 1426 1424 1424 1424 1426 1424 1425 1427 1428 1430 1429 1428 1427 1428 1429 1430 1431 1433 1435 1438 1438
1497 1497 1498 1497 1493 1489 1487 1482 1474 1469 1464 1457 1451 1445 1440 1436 1434 1431 1428 1426 1424 1421 1418 1415 1415 1416 1415 1417 1418 1418 1420 1421 1420 1420 1419 1419 1421 1423 1423 1425 1427 1429 1428
1494 1493 1491 1487 1484 1479 1473 1466 1464 1458 1452 1447 1442 1439 1434 1429 1423 1419 1418 1416 1415 1413 1408 1406 1406 1406 1406 1406 1406 1408 1409 1410 1411 1411 1410 1411 1412 1414 1415 1416 1418 1419 1420
1492 1490 1487 1483 1477 1472 1467 1462 1455 1451 1448 1443 1437 1432 1426 1420 1414 1410 1407 1404 1402 1401 1397 1396 1396 1396 1396 1395 1396 1398 1398 1399 1400 1401 1402 1403 1403 1404 1405 1406 1408 1410 1411
1488 1486 1482 1479 1475 1470 1466 1462 1457 1448 1440 1435 1430 1423 1417 1410 1404 1399 1395 1391 1388 1387 1386 1386 1385 1386 1384 1384 1386 1386 1387 1389 1389 1391 1393 1394 1394 1394 1395 1395 1398 1401 1403
1486 1483 1480 1477 1473 1469 1464 1458 1451 1443 1435 1427 1418 1412 1407 1401 1394 1388 1385 1381 1378 1376 1375 1374 1374 1372 1370 1371 1374 1375 1377 1378 1380 1382 1383 1383 1384 1385 1385 1387 1390 1391 1394
1484 1481 1477 1472 1468 1462 1457 1449 1442 1434 1426 1418 1411 1405 1399 1392 1385 1380 1375 1371 1368 1366 1365 1364 1364 1362 1362 1364 1366 1367 1367 1369 1370 1372 1373 1374 1374 1375 1377 1379 1381 1382 1384
1480 1476 1473 1468 1462 1456 1449 1442 1435 1427 1420 1414 1406 1399 1394 1387 1379 1372 1367 1363 1361 1358 1357 1355 1355 1355 1356 1357 1357 1357 1359 1360 1361 1363 1364 1364 1365 1366 1369 1370 1371 1373 1375
1476 1472 1467 1462 1456 1450 1444 1437 1430 1422 1415 1407 1398 1391 1386 1380 1372 1365 1360 1356 1353 1350 1348 1347 1347 1347 1348 1348 1348 1349 1350 1351 1353 1354 1355 1356 1357 1359 1360 1362 1362 1364 1367
1472 1468 1463 1458 1452 1446 1440 1431 1423 1416 1408 1400 1392 1385 1378 1371 1364 1358 1352 1348 1345 1342 1341 1340 1339 1339 1338 1338 1339 1340 1342 1344 1344 1343 1344 1347 1348 1351 1353 1354 1355 1357 1359
1470 1465 1460 1454 1447 1441 1433 1425 1417 1409 1401 1393 1385 1377 1369 1363 1356 1350 1345 1340 1336 1334 1333 1331 1330 1330 1330 1331 1332 1333 1334 1335 1336 1336 1337 1339 1340 1342 1344 1346 1348 1349 1352
1467 1462 1455 1449 1442 1435 1427 1419 1412 1404 1396 1388 1379 1370 1362 1355 1349 1342 1337 1332 1328 1326 1324 1322 1321 1320 1320 1322 1323 1324 1325 1326 1327 1328 1329 1332 1333 1336 1336 1339 1340 1342 1345
1463 1457 1450 1444 1437 1430 1423 1416 1409 1401 1392 1383 1376 1367 1359 1352 1345 1337 1331 1326 1321 1316 1314 1312 1310 1311 1311 1312 1313 1315 1316 1316 1317 1320 1321 1323 1325 1327 1329 1330 1332 1335 1337